Regional Weather Roundup
Issued by NWS

Home | Current Version | Previous Version | Graphics & Text | Print | Product List | Glossary On
Versions: 1 2 3 4 5 6 7 8 9 10 11 12 13 14 15 16 17 18 19 20 21 22 23 24 25 26 27 28 29 30 31 32 33 34 35 36 37 38 39 40 41 42 43 44 45 46 47 48 49 50
364
ASUS43 KMPX 241010
RWRMN
WEATHER ROUNDUP FOR MINNESOTA
NATIONAL WEATHER SERVICE TWIN CITIES/CHANHASSEN MN
400 AM CST SAT FEB 24 2018


NOTE: "FAIR" INDICATES FEW OR NO CLOUDS BELOW 12,000 FEET WITH NO
SIGNIFICANT WEATHER AND/OR OBSTRUCTIONS TO VISIBILITY. N/A MEANS
CURRENT SKY AND/OR WEATHER CONDITIONS ARE NOT AVAILABLE.

MNZ060>063-068>070-241100-
   Twin Cities Metro

CITY           SKY/WX    TMP DP  RH WIND       PRES   REMARKS
TWIN CITIES    FAIR      10   8  92 CALM      30.22F
ST PAUL        FOG       12   9  87 CALM      30.24F VSB 1/2
CRYSTAL        FAIR       4   0  83 CALM      30.21F FOG
BLAINE         FAIR       5   1  85 CALM      30.21F
LAKEVILLE        N/A     -2  -4  92 CALM      30.21F FOG
EDEN PRAIRIE   FAIR       7   2  80 CALM      30.21F HAZE
SOUTH ST PAUL  FAIR       6   2  86 CALM      30.22F
LAKE ELMO      FOG      N/A N/A N/A CALM      30.22F VSB 1/4
$$
MNZ001>005-007-008-013>017-022>024-027-028-241100-
   Northwest Minnesota

CITY           SKY/WX    TMP DP  RH WIND       PRES   REMARKS
BEMIDJI        FAIR      -9 -13  82 E3        30.11F
HALLOCK        FAIR       0  -4  85 SE13      30.07F WCI -18
ROSEAU         FAIR       1  -4  78 S9        30.09F WCI -14
WARROAD        FAIR       3   0  85 S3        30.09F
THIEF RVR FALL FAIR      -2  -6  83 SE9       30.11F WCI -18
CROOKSTON      FAIR      -4  -8  84 S8        30.12F WCI -19
FOSSTON        FAIR       3   0  85 SE5       30.11F WCI  -6
DETROIT LAKES  FAIR      -6  -9  84 CALM      30.12F
MOORHEAD       FAIR      -2  -8  78 S3        30.14F
PARK RAPIDS    FAIR      -4 -10  75 CALM      30.11F
MAHNOMEN       FAIR       3  -1  85 SE7       30.10F WCI -10
$$
MNZ006-009>011-018-025>026-241100-
   North Central Minnesota

CITY           SKY/WX    TMP DP  RH WIND       PRES   REMARKS
BAUDETTE       FAIR      -2  -5  87 SE5       30.12F FOG     WCI -12
FLAG ISLAND    FAIR      -4  -8  84 SE8       30.09F WCI -19
INTL FALLS     FAIR      -5  -7  91 VRB3      30.15F
WASKISH        FAIR       0  -4  85 CALM      30.13F
LONGVILLE      FAIR      -9 -15  77 CALM      30.15F
GRAND RAPIDS   FAIR      -4  -6  91 CALM      30.17F
CRANE LAKE     FAIR      -9 -11  92 CALM      30.21S
ORR            FAIR       0  -6  78 CALM      30.13F
COOK             N/A     -8  -9  92 CALM      30.17F
WALKER         FAIR      -4  -7  85 E3        30.13F
$$
MNZ012-019>021-037-241100-
   Northeast Minnesota

CITY           SKY/WX    TMP DP  RH WIND       PRES   REMARKS
DULUTH         FAIR      11   6  81 NW7       30.16F WCI   0
ELY            FAIR      -6  -9  84 CALM      30.17F
HIBBING        FAIR      -8 -12  83 CALM      30.16F
EVELETH        FAIR      -8 -13  77 CALM      30.18F
DULUTH HARBOR  FAIR      12   7  79 CALM      30.23F
TWO HARBORS    FAIR      16   7  67 W3        30.16F
SILVER BAY     FAIR      12   9  85 CALM      30.16S
G MARAIS ARPRT FAIR       9   1  72 W6        30.10F WCI  -1
$$
MNZ029>031-032-039>041-046>048-054>057-064-241100-
   West Central Minnesota

CITY           SKY/WX    TMP DP  RH WIND       PRES   REMARKS
FERGUS FALLS   FAIR       0  -6  78 E5        30.14F WCI -10
WHEATON        CLOUDY   -11 -17  77 CALM      30.17F
MORRIS         HAZE     -17 -20  83 S3        30.13F VSB 1/4
ALEXANDRIA     FAIR       2  -1  88 E5        30.13F WCI  -8
ELBOW LAKE     FAIR      -5  -8  85 SE5       30.14F WCI -15
WADENA         FAIR      -9 -15  77 CALM      30.13F
GLENWOOD       FAIR      -2  -6  84 NE8       30.13F WCI -17
APPLETON       HAZE     -11 -17  77 CALM      30.18F VSB 1/2
BENSON         HAZE     -13 -18  77 SW3       30.18S VSB 1/4
ORTONVILLE     HAZE      -8 -11  84 CALM      30.15F VSB 1/4
MADISON        SNOW      -8 -11  84 CALM      30.18F VSB 1/4
WILLMAR        MOCLDY    -9 -15  77 CALM      30.19F
$$
MNZ033>034-036-042>043-049>051-058-059-241100-
   Central Minnesota

CITY           SKY/WX    TMP DP  RH WIND       PRES   REMARKS
ST CLOUD       FAIR      -4  -8  83 CALM      30.18F FOG
SAUK CENTRE    FAIR     -11 -15  82 CALM      30.16F
PAYNESVILLE    FAIR      -8 -10  90 CALM      30.17F
AITKIN         FAIR      -9 -15  77 CALM      30.16F
PINE RIVER     FAIR      -9 -15  77 CALM      30.17F
BRAINERD       FAIR      -8 -14  74 CALM      30.15F
STAPLES        FAIR     -11 -17  77 CALM      30.14F
LONG PRAIRIE   FAIR      -6  -9  84 CALM      30.14F
LITTLE FALLS   FAIR      -8 -17  65 CALM      30.17F
LITCHFIELD     FAIR      -2  -6  84 CALM      30.19F
BUFFALO        FAIR      -3  -7  84 CALM      30.21S
MAPLE LAKE     FAIR      -3  -6  87 CALM      30.21S
HUTCHINSON     FAIR      -9 -13  81 CALM      30.20F
$$
MNZ037-044-045-052-053-241100-
   East Central Minnesota

CITY           SKY/WX    TMP DP  RH WIND       PRES   REMARKS
PRINCETON      FAIR      -2  -8  78 CALM      30.18F
CAMBRIDGE        N/A      3  -4  72 CALM      30.20F
RUSH CITY      FAIR       1  -2  85 CALM      30.21F
MOOSE LAKE     FAIR       1  -4  78 CALM      30.18F
HINCKLEY       FAIR       0  -4  85 CALM      30.19F
CLOQUET        FAIR       9   3  78 NW7       30.17F WCI  -3
MCGREGOR       FAIR       0  -4  85 CALM      30.18F
$$
MNZ071>073-080-081-089-090-097-098-241100-
   Southwest Minnesota

CITY           SKY/WX    TMP DP  RH WIND       PRES   REMARKS
MONTEVIDEO     CLOUDY    -8  -9  92 CALM      30.18F FOG
GRANITE FALLS  FOG       -1  -5  84 CALM      30.20F VSB 1/4
CANBY          CLOUDY    -8 -12  81 CALM      30.16F
MARSHALL       CLOUDY     0  -3  87 S7        30.17F WCI -13
REDWOOD FALLS  CLOUDY    -3  -4  95 S3        30.19F FOG
OLIVIA           N/A      1  -4  78 CALM      30.18F FOG
PIPESTONE      LGT SNOW   7   1  78 CALM      30.09F VSB 3/4
WORTHINGTON    SNOW      10   8  92 E9        30.12F VSB 1/4 WCI  -3
JACKSON        FOG        7   3  85 CALM      30.14F VSB 1/4
TRACY          CLOUDY     7   5  90 CALM      30.14F
SLAYTON        FOG       10   8  92 CALM      30.12F VSB 1/2
$$
MNZ065>067-074>077-082>085-091>093-241100-
   South Central Minnesota

CITY           SKY/WX    TMP DP  RH WIND       PRES   REMARKS
MANKATO        FOG        4   1  88 CALM      30.20F VSB 1/4
NEW ULM        HAZE      -2  -8  78 CALM      30.19F VSB 1/4
ST JAMES       FOG        1   0  92 CALM      30.20S VSB<1/4
FAIRMONT       FOG        8   5  87 CALM      30.18F VSB 1/4
GLENCOE        FAIR      -1  -5  86 CALM      30.20F
FARIBAULT      FOG        1  -2  85 CALM      30.20F VSB 1/2
OWATONNA       CLOUDY     3   0  85 CALM      30.18F FOG
WASECA         FOG        3   0  85 CALM      30.19F VSB 1/2
ALBERT LEA     FOG       10   9  92 CALM      30.16F VSB 1/2
$$
MNZ078>079-086>088-094>096-241100-
   Southeast Minnesota

CITY           SKY/WX    TMP DP  RH WIND       PRES   REMARKS
ROCHESTER      FOG        8   7  95 SE6       30.17F VSB 1/4 WCI  -2
RED WING       HAZE      10   5  79 CALM      30.23F VSB<1/4
STANTON        FAIR      -3  -8  81 CALM      30.20F
DODGE CENTER   FOG        3   1  92 CALM      30.17F VSB 1/4
WINONA         FAIR      12   9  85 CALM      30.24F FOG
AUSTIN         MOCLDY     7   1  78 CALM      30.17F
PRESTON        FAIR      14  12  92 CALM      30.19F FOG
$$
ABBREVIATIONS USED IN REMARKS
   TC - TEMPERATURES IN CELSIUS
  WCI - WIND CHILL INDEX
   HX - HEAT INDEX
  VSB - VISIBILITY
$$




USA.gov is the U.S. government's official web portal to all federal, state and local government web resources and services.